User: anonymous   Login
Location: Unspecified
(0.0000°N, 0.0000°E)
Time: 20:15:25
(UTC+01:00)
Language:

Cosmos 1092 Rocket - Orbit

View from above orbital plane
View from above orbital plane
View from above satellite
View from above satellite

Ground track
Ground track

The orbit data is extracted from the following two-line orbital elements,

1 11327U 79030B   17017.22421907  .00000023  00000-0  79601-5 0  9999
2 11327  82.9481  47.9536 0026456 240.7460 189.6465 13.76963331898363
Epoch (UTC): 17 January 2017 05:22:52
Eccentricity: 0.0026456
inclination: 82.9481°
perigee height: 955 km
apogee height: 994 km
right ascension of ascending node: 47.9536°
argument of perigee: 240.7460°
revolutions per day: 13.76963331
mean anomaly at epoch: 189.6465°
orbit number at epoch: 89836

The dashed part of the orbit path shows where the satellite is in the earth's shadow,  

DLR